Regional Weather Roundup
Issued by NWS

Home | Current Version | Previous Version | Graphics & Text | Print | Product List | Glossary On
Versions: 1 2 3 4 5 6 7 8 9 10 11 12 13 14 15 16 17 18 19 20 21 22 23 24 25 26 27 28 29 30 31 32 33 34 35 36 37 38 39 40 41 42 43 44 45 46 47 48 49 50
000
ASUS45 KCYS 270910
RWRWY

WYOMING REGIONAL WEATHER ROUNDUP
NATIONAL WEATHER SERVICE CHEYENNE WY
300 AM MDT WED MAY 27 2015

NOTE:  "FAIR" INDICATES FEW OR NO CLOUDS BELOW 12,000 FEET
WITH NO SIGNIFICANT WEATHER AND/OR OBSTRUCTIONS TO VISIBILITY.

WYZ001-271000-
YELLOWSTONE NATIONAL PARK

CITY           SKY/WX    TMP DP  RH WIND       PRES   REMARKS
LK YELLOWSTONE   N/A     36  34  92 CALM      30.15R
W YELLOWSTONE  NOT AVBL

$$
WYZ002>013-054>058-071-098>099-271000-
NORTHERN WYOMING

CITY           SKY/WX    TMP DP  RH WIND       PRES   REMARKS
JACKSON        CLOUDY    41  41 100 CALM      30.10S
CODY           CLOUDY    52  45  76 CALM      29.99S
GREYBULL       LGT RAIN  55  50  83 S5        29.97S
WORLAND        CLOUDY    54  51  90 CALM      29.98S
SHERIDAN       FAIR      47  45  93 S5        29.95F
BUFFALO        CLOUDY    50  46  86 E6        29.99F
GILLETTE       FAIR      49  46  90 CALM      29.97F
HULETT         FAIR      55  46  71 S10       29.99S
NEWCASTLE      FAIR      54  46  76 E6        30.00F

$$
WYZ014>020-022>026-101>103-271000-
CENTRAL WYOMING

CITY           SKY/WX    TMP DP  RH WIND       PRES   REMARKS
BIG PINEY      MOCLDY    42  41  96 N7        30.11S
PINEDALE       FAIR      41  41 100 NW3       30.13R
DUBOIS         FAIR      39  36  87 NW14      30.08R WCI  31
LANDER         CLOUDY    48  41  76 W7        30.01R
RIVERTON       FAIR      48  45  89 NW3       30.02S
CASPER         CLOUDY    51  49  92 CALM      30.03S
DOUGLAS        FAIR      50  48  93 CALM      30.03F

$$
WYZ021-027>030-104>119-271000-
SOUTHERN WYOMING

CITY           SKY/WX    TMP DP  RH WIND       PRES   REMARKS
EVANSTON       MOCLDY    42  40  92 SW5       30.14S
KEMMERER       FAIR      39  39 100 W9        30.13F WCI  33
FORT BRIDGER   SUNNY     43  41  93 W12       30.16S
ROCK SPRINGS   CLOUDY    46  42  86 W9        30.11S
DIXON          CLOUDY    48  42  80 SW12G18   30.14F
RAWLINS        CLOUDY    46  43  89 W3        30.10F
SARATOGA       CLOUDY    45  41  87 S5        30.13S
LARAMIE        CLOUDY    46  41  82 SW7       30.13R
CHEYENNE       CLOUDY    48  46  93 SW6       30.08S
TORRINGTON     LGT RAIN  54  52  93 SE6       30.01F
PINE BLUFFS    FAIR      50  46  87 CALM      30.06S

$$


USA.gov is the U.S. government's official web portal to all federal, state and local government web resources and services.